Victoria, British Columbia

6:28 PM PDT on July 26, 2017 (GMT -0700)
Victoria International

Weather History for CYYJ - April, 2014

Change the Weather History Date:

Sunday, April 13, 2014

  Actual Average Record
Temperature  
Mean Temperature 49 °F -  
Max Temperature 62 °F 58 °F 62 °F (2014)
Min Temperature 36 °F 41 °F 35 °F (1999)
Degree Days  
Heating Degree Days 16    
Moisture  
Dew Point 34 °F    
Average Humidity 59    
Maximum Humidity 87    
Minimum Humidity 17    
Precipitation  
Precipitation 0.00 in 0.05 in - ()
Sea Level Pressure  
Sea Level Pressure 30.29 in    
Wind  
Wind Speed 5 mph ()    
Max Wind Speed 7 mph    
Max Gust Speed -    
Averages and records for this station are not official NWS values.
T = Trace of Precipitation, MM = Missing Value Source: Averaged Metar Reports

Daily Weather History Graph

Daily Weather History Graph

Search for Another Location

Airport or City:

Trip Planner

Search our weather history database for the weather conditions in past years. The results will help you decide how hot, cold, wet, or windy it might be!

Date:

Astronomy

Apr. 13, 2014 Rise Set
Actual Time 6:26 AM PDT 8:02 PM PDT
Civil Twilight 5:54 AM PDT 8:35 PM PDT
Nautical Twilight 5:13 AM PDT 9:15 PM PDT
Astronomical Twilight 4:30 AM PDT 9:59 PM PDT
Moon 6:40 PM PDT (4/13) 5:36 AM PDT (4/13)
Length of Visible Light 14h 41m
Length of Day
13h 35m
Waxing Gibbous, 97% of the Moon is Illuminated
Apr 13
Waxing Gibbous
Apr 15
Full
Apr 22
Last Quarter
Apr 28
New
May 6
First Quarter

Hourly Weather History & Observations

Time (PDT) Temp. Windchill Dew Point Humidity Pressure Visibility Wind Dir Wind Speed Gust Speed Precip Events Conditions
12:00 AM 42.8 °F 40.1 °F 37.4 °F 81% 30.21 in 30.0 mi WSW 4.6 mph - N/A   Clear
1:00 AM 42.8 °F 39.3 °F 39.2 °F 87% 30.23 in 30.0 mi WSW 5.8 mph - N/A   Clear
2:00 AM 42.8 °F 38.6 °F 39.2 °F 87% 30.25 in 30.0 mi West 6.9 mph - N/A   Clear
3:00 AM 42.8 °F 40.1 °F 37.4 °F 81% 30.26 in 30.0 mi West 4.6 mph - N/A   Clear
4:00 AM 41.0 °F 37.1 °F 37.4 °F 87% 30.28 in 30.0 mi West 5.8 mph - N/A   Clear
5:00 AM 39 °F - 35 °F 80% 30.29 in 28 mi WSW 4.6 mph - -  
5:00 AM 39.2 °F 35.0 °F 35.6 °F 87% 30.29 in 30.0 mi WSW 5.8 mph - N/A   Clear
6:00 AM 39.2 °F 35.9 °F 35.6 °F 87% 30.30 in 30.0 mi WSW 4.6 mph - N/A   Partly Cloudy
7:00 AM 37.4 °F 33.8 °F 33.8 °F 87% 30.31 in 30.0 mi WSW 4.6 mph - N/A   Partly Cloudy
8:00 AM 44.6 °F 40.7 °F 39.2 °F 81% 30.33 in 30.0 mi West 6.9 mph - N/A   Partly Cloudy
9:00 AM 48.2 °F - 39.2 °F 71% 30.35 in 30.0 mi West 6.9 mph - N/A   Partly Cloudy
10:00 AM 53.6 °F - 41.0 °F 62% 30.35 in 30.0 mi NW 4.6 mph - N/A   Partly Cloudy
11:00 AM 56 °F - 32 °F 28% 30.36 in 28 mi NNE 4.6 mph - -   Clear
11:00 AM 57.2 °F - 32.0 °F 38% 30.36 in 30.0 mi North 2.3 mph - N/A   Partly Cloudy
12:00 PM 59.0 °F - 32.0 °F 36% 30.35 in 30.0 mi North 6.9 mph - N/A   Partly Cloudy
1:00 PM 59.0 °F - 30.2 °F 34% 30.35 in 30.0 mi NNE 5.8 mph - N/A   Scattered Clouds
2:00 PM 60.8 °F - 35.6 °F 39% 30.33 in 30.0 mi NE 6.9 mph - N/A   Scattered Clouds
3:00 PM 60.8 °F - 33.8 °F 36% 30.32 in 30.0 mi East 6.9 mph - N/A   Partly Cloudy
4:00 PM 60.8 °F - 33.8 °F 36% 30.30 in 30.0 mi NE 5.8 mph - N/A   Partly Cloudy
5:00 PM 62 °F - 28 °F 17% 30.28 in 28 mi East 3.5 mph - -   Clear
5:00 PM 62.6 °F - 28.4 °F 27% 30.28 in 30.0 mi East 4.6 mph - N/A   Partly Cloudy
6:00 PM 60.8 °F - 28.4 °F 29% 30.26 in 30.0 mi East 4.6 mph - N/A   Partly Cloudy
7:00 PM 59.0 °F - 30.2 °F 34% 30.24 in 30.0 mi NNE 3.5 mph - N/A   Scattered Clouds
8:00 PM 53.6 °F - 33.8 °F 47% 30.23 in 30.0 mi Variable 2.3 mph - N/A   Scattered Clouds
9:00 PM 46.4 °F - 32.0 °F 57% 30.23 in 30.0 mi SSW 2.3 mph - N/A   Scattered Clouds
10:00 PM 46.4 °F 45.2 °F 35.6 °F 66% 30.23 in 30.0 mi WSW 3.5 mph - N/A   Partly Cloudy
11:00 PM 41 °F - 34 °F 69% 30.22 in 28 mi WSW 5.8 mph - -  
11:00 PM 41.0 °F 37.1 °F 33.8 °F 76% 30.22 in 30.0 mi WSW 5.8 mph - N/A   Partly Cloudy